Total_Precipitation_Accumulation
0.00 0.01 0.05 0.03 0.01 0.02 0.03 0.03 0.04 0.04 0.04 0.04 0.03 0.02 0.02 0.01 0.01 0.01 0.01 0.01 0.02 0.02 0.03 0.04 0.06 0.07 0.07 0.05 0.04 0.04 0.03 0.03 0.03 0.03 0.04 0.04 0.06 0.10 0.17 0.23 0.34 0.33 0.20
0.00 0.00 0.03 0.01 0.01 0.02 0.03 0.04 0.04 0.04 0.04 0.04 0.03 0.03 0.03 0.02 0.01 0.01 0.01 0.01 0.02 0.02 0.02 0.03 0.05 0.05 0.04 0.04 0.03 0.02 0.02 0.02 0.03 0.04 0.05 0.04 0.05 0.09 0.14 0.17 0.37 0.30 0.17
0.00 0.00 0.01 0.01 0.01 0.02 0.03 0.03 0.05 0.06 0.06 0.05 0.05 0.05 0.04 0.04 0.02 0.02 0.01 0.01 0.02 0.02 0.02 0.02 0.03 0.03 0.03 0.02 0.02 0.01 0.01 0.02 0.05 0.08 0.18 0.17 0.07 0.09 0.15 0.19 0.24 0.22 0.18
0.00 0.00 0.01 0.01 0.02 0.02 0.02 0.03 0.05 0.05 0.05 0.06 0.09 0.09 0.07 0.03 0.02 0.02 0.02 0.01 0.02 0.02 0.02 0.02 0.02 0.01 0.02 0.02 0.02 0.01 0.02 0.03 0.07 0.16 0.39 0.28 0.13 0.09 0.13 0.16 0.16 0.18 0.16
0.01 0.00 0.01 0.01 0.02 0.01 0.02 0.04 0.06 0.06 0.06 0.08 0.13 0.13 0.10 0.05 0.05 0.05 0.04 0.02 0.02 0.03 0.02 0.01 0.02 0.02 0.01 0.01 0.01 0.01 0.02 0.03 0.07 0.19 0.25 0.29 0.32 0.14 0.10 0.14 0.17 0.21 0.16
0.02 0.01 0.01 0.02 0.02 0.02 0.02 0.04 0.08 0.10 0.08 0.09 0.12 0.12 0.11 0.08 0.11 0.09 0.05 0.03 0.04 0.04 0.03 0.02 0.02 0.02 0.01 0.01 0.01 0.02 0.02 0.04 0.09 0.15 0.16 0.18 0.27 0.22 0.18 0.27 0.34 0.34 0.25
0.05 0.02 0.01 0.02 0.02 0.02 0.02 0.03 0.05 0.08 0.09 0.10 0.11 0.10 0.07 0.05 0.05 0.05 0.04 0.04 0.04 0.04 0.04 0.03 0.03 0.03 0.02 0.02 0.01 0.02 0.02 0.05 0.12 0.12 0.14 0.23 0.31 0.20 0.27 0.49 0.63 0.58 0.47
0.06 0.03 0.03 0.03 0.03 0.03 0.03 0.03 0.03 0.04 0.05 0.05 0.06 0.05 0.04 0.03 0.05 0.07 0.06 0.05 0.05 0.05 0.05 0.05 0.05 0.05 0.05 0.04 0.03 0.03 0.04 0.05 0.07 0.08 0.12 0.23 0.21 0.16 0.41 0.64 0.79 0.79 0.72
0.06 0.04 0.05 0.05 0.05 0.04 0.04 0.03 0.04 0.04 0.05 0.05 0.05 0.05 0.05 0.05 0.06 0.08 0.11 0.10 0.10 0.10 0.11 0.10 0.09 0.07 0.07 0.07 0.05 0.04 0.05 0.07 0.11 0.10 0.13 0.23 0.19 0.32 0.71 0.86 0.86 0.90 0.89
0.06 0.05 0.06 0.07 0.07 0.06 0.05 0.05 0.05 0.06 0.05 0.06 0.06 0.07 0.07 0.06 0.07 0.11 0.13 0.14 0.17 0.21 0.22 0.18 0.15 0.14 0.12 0.10 0.07 0.07 0.07 0.09 0.10 0.09 0.17 0.19 0.22 0.48 0.86 1.01 1.05 1.03 0.98
0.08 0.07 0.06 0.07 0.09 0.09 0.08 0.08 0.08 0.09 0.08 0.08 0.11 0.11 0.11 0.13 0.19 0.26 0.28 0.36 0.36 0.40 0.41 0.37 0.35 0.33 0.30 0.19 0.20 0.24 0.17 0.09 0.10 0.12 0.17 0.17 0.27 0.52 0.84 1.01 1.07 1.10 1.03
0.09 0.09 0.09 0.12 0.12 0.12 0.13 0.18 0.20 0.19 0.23 0.20 0.33 0.39 0.40 0.49 0.45 0.28 0.37 0.58 0.72 0.84 0.83 0.81 0.81 0.68 0.56 0.46 0.79 0.95 0.31 0.20 0.18 0.16 0.24 0.25 0.42 0.68 0.97 1.02 1.01 1.05 0.99
0.15 0.15 0.16 0.16 0.18 0.19 0.24 0.26 0.27 0.37 0.48 0.46 0.49 0.56 0.63 0.64 0.50 0.37 0.46 0.68 0.93 1.06 1.00 1.27 1.35 1.00 1.04 1.14 1.12 1.04 0.57 0.50 0.44 0.41 0.46 0.62 0.78 1.03 1.39 1.29 1.10 1.00 0.94
0.24 0.24 0.27 0.25 0.30 0.40 0.44 0.34 0.32 0.43 0.52 0.56 0.63 0.67 0.78 0.87 0.77 0.72 0.76 0.85 1.03 1.18 1.41 1.51 1.62 1.52 1.51 1.48 1.36 1.20 1.00 0.97 0.79 0.95 1.03 0.98 1.00 1.14 1.54 1.53 1.24 1.09 0.95
0.49 0.46 0.45 0.51 0.51 0.58 0.56 0.56 0.53 0.63 0.67 0.71 0.79 0.88 0.93 1.13 1.18 1.21 1.10 1.10 1.12 1.27 1.44 1.57 1.65 1.95 2.08 1.79 1.47 1.34 1.30 1.35 1.19 1.25 1.18 1.10 1.01 1.07 1.32 1.50 1.42 1.30 1.11
0.67 0.77 0.76 0.78 0.87 0.93 1.00 1.05 1.06 0.94 0.92 0.91 0.91 0.97 1.06 1.23 1.41 1.49 1.40 1.37 1.26 1.30 1.47 1.68 1.85 2.23 2.24 2.08 1.68 1.52 1.44 1.39 1.28 1.22 1.24 1.35 1.19 1.07 1.09 1.23 1.38 1.35 1.26
0.93 1.03 1.10 1.23 1.41 1.51 1.50 1.54 1.50 1.39 1.31 1.23 1.25 1.29 1.27 1.31 1.42 1.45 1.33 1.28 1.35 1.50 1.65 1.73 1.93 2.22 1.91 1.89 1.65 1.59 1.43 1.23 1.08 1.04 1.19 1.29 1.18 1.08 1.11 1.14 1.17 1.20 1.25
1.15 1.31 1.56 1.75 1.81 1.81 1.88 1.95 1.87 1.75 1.65 1.54 1.49 1.52 1.41 1.35 1.38 1.51 1.37 1.29 1.64 1.76 1.83 1.97 2.11 2.11 1.99 1.94 1.74 1.52 1.37 1.27 1.02 0.93 0.92 0.96 1.06 0.92 1.03 1.11 1.07 1.04 1.15
1.60 1.85 2.18 2.32 2.31 2.19 2.20 2.21 2.16 1.99 1.79 1.65 1.56 1.52 1.39 1.40 1.49 1.69 1.61 1.69 1.97 2.03 2.01 1.95 2.19 2.18 2.03 1.99 1.83 1.54 1.25 1.11 0.95 0.83 0.74 0.67 0.75 0.80 0.83 0.88 0.89 0.92 1.12
1.90 2.26 2.36 2.49 2.80 2.73 2.62 2.46 2.22 1.86 1.63 1.59 1.57 1.44 1.44 1.52 1.65 1.90 1.74 1.75 1.96 2.05 1.98 1.95 1.92 2.00 1.83 1.83 1.75 1.44 1.10 0.83 0.78 0.67 0.56 0.53 0.53 0.53 0.60 0.71 0.83 0.71 0.86
1.87 2.17 2.49 2.74 2.89 2.79 2.56 2.31 2.11 1.94 1.85 1.66 1.57 1.50 1.46 1.46 1.55 1.80 1.71 1.81 1.86 1.81 1.79 1.85 1.86 1.72 1.47 1.69 1.72 1.30 0.89 0.71 0.67 0.49 0.47 0.46 0.42 0.43 0.52 0.67 0.79 0.79 0.71
1.74 2.13 2.40 2.71 2.81 2.61 2.33 2.16 2.07 2.03 1.76 1.54 1.54 1.53 1.53 1.58 1.59 1.67 1.71 1.72 1.76 1.74 1.63 1.60 1.69 1.54 1.31 1.49 1.56 1.46 0.94 0.72 0.59 0.46 0.51 0.56 0.54 0.56 0.57 0.61 0.72 0.84 0.83
1.54 1.78 1.98 2.07 2.05 1.94 1.91 1.95 1.97 1.97 1.74 1.69 1.77 1.81 1.78 1.79 1.76 1.76 1.70 1.59 1.47 1.42 1.34 1.36 1.47 1.46 1.32 1.32 1.51 1.66 1.28 0.90 0.81 0.64 0.62 0.62 0.68 0.72 0.68 0.69 0.72 0.82 0.90
1.46 1.63 1.80 1.79 1.65 1.53 1.58 1.77 1.84 1.81 1.76 1.91 2.15 2.07 1.85 1.69 1.56 1.40 1.28 1.26 1.22 1.21 1.11 1.06 1.17 1.22 1.15 1.10 1.24 1.39 1.46 1.41 1.29 0.84 0.61 0.57 0.68 0.76 0.80 0.73 0.66 0.72 0.87
1.23 1.32 1.48 1.58 1.50 1.45 1.47 1.54 1.66 1.69 1.69 1.69 1.69 1.65 1.54 1.38 1.19 1.02 0.94 0.94 0.93 0.93 0.88 0.85 0.87 0.89 0.93 0.94 1.07 1.24 1.34 1.39 1.38 1.25 0.87 0.81 0.82 0.76 0.78 0.76 0.76 0.76 0.80
1.01 1.02 1.00 1.11 1.18 1.23 1.27 1.30 1.33 1.30 1.27 1.21 1.14 1.11 1.05 0.96 0.80 0.68 0.65 0.68 0.73 0.79 0.77 0.75 0.77 0.77 0.83 0.94 0.98 1.09 1.22 1.21 1.22 1.29 1.08 0.97 0.92 0.81 0.82 0.85 0.84 0.90 0.87